When you browse on this site, cookies collect data to enhance your experience and personalize the content and advertising you see.
Visit our Privacy Policy to learn more. By continuing to use the site, you agree to this use of cookies and data.
  • In Czech Republic
  • List of Countries
  • For 7 days
  • Water Temperature
  • Satellite Maps
  • Weather Map
  • Weather Widgets
  • user-avatar
    Login

    Hourly Weather Kalat

    Today, 23 May, Thursday

    Time Temperature Precipitation Wind Pressure Humidity
    00:00 +3°C° 0.3 mm 1 mps 476 mmHg 82%
    01:00 +3°C° 0.3 mm 1 mps 476 mmHg 82%
    02:00 +1°C° 0.3 mm 2 mps 475 mmHg 82%
    03:00 +2°C° 0.1 mm 1 mps 475 mmHg 82%
    04:00 +1°C° 0.1 mm 1 mps 475 mmHg 81%
    05:00 -2°C° 0 mm 2 mps 474 mmHg 74%
    06:00 -1°C° 0.4 mm 2 mps 474 mmHg 76%
    07:00 +1°C° 0.4 mm 2 mps 475 mmHg 77%
    08:00 +2°C° 0.4 mm 1 mps 475 mmHg 79%
    09:00 +3°C° 0.9 mm 1 mps 476 mmHg 81%
    10:00 +2°C° 0.9 mm 2 mps 476 mmHg 83%
    11:00 +2°C° 0 mm 2 mps 476 mmHg 85%
    12:00 +3°C° 0.7 mm 2 mps 476 mmHg 84%
    13:00 +3°C° 0.7 mm 2 mps 477 mmHg 83%
    14:00 +4°C° 0.7 mm 2 mps 477 mmHg 83%
    15:00 +4°C° 0.6 mm 2 mps 477 mmHg 82%
    16:00 +4°C° 0.6 mm 2 mps 477 mmHg 82%
    17:00 +4°C° 0 mm 2 mps 477 mmHg 82%
    18:00 +3°C° 0.2 mm 2 mps 477 mmHg 81%
    19:00 +3°C° 0.2 mm 2 mps 476 mmHg 80%
    20:00 +2°C° 0.2 mm 2 mps 476 mmHg 80%
    21:00 +2°C° 0.5 mm 2 mps 476 mmHg 81%
    22:00 +2°C° 0.5 mm 2 mps 476 mmHg 82%
    23:00 +2°C° 0.5 mm 2 mps 476 mmHg 84%

    Tomorrow, 24 May, Friday

    Time Temperature Precipitation Wind Pressure Humidity
    00:00 +1°C° 1.2 mm 2 mps 475 mmHg 85%
    01:00 +1°C° 1.2 mm 2 mps 475 mmHg 86%
    02:00 +1°C° 1.2 mm 2 mps 475 mmHg 87%
    03:00 +1°C° 0.5 mm 2 mps 475 mmHg 86%
    04:00 -1°C° 0.5 mm 2 mps 474 mmHg 86%
    05:00 -1°C° 0.5 mm 3 mps 474 mmHg 85%
    06:00 0°C° 0.1 mm 3 mps 475 mmHg 83%
    07:00 +1°C° 0.1 mm 3 mps 476 mmHg 80%
    08:00 +1°C° 0.1 mm 3 mps 476 mmHg 77%
    09:00 +2°C° 0.2 mm 3 mps 477 mmHg 78%
    10:00 +2°C° 0.2 mm 3 mps 477 mmHg 78%
    11:00 +2°C° 0.2 mm 3 mps 477 mmHg 78%
    12:00 +4°C° 0.4 mm 2 mps 477 mmHg 77%
    13:00 +4°C° 0.4 mm 2 mps 477 mmHg 75%
    14:00 +4°C° 0.4 mm 2 mps 478 mmHg 74%
    15:00 +4°C° 0.3 mm 2 mps 478 mmHg 72%
    16:00 +4°C° 0.3 mm 2 mps 478 mmHg 70%
    17:00 +3°C° 0.3 mm 2 mps 478 mmHg 69%
    18:00 +2°C° 0.1 mm 2 mps 477 mmHg 71%
    19:00 +2°C° 0.1 mm 2 mps 477 mmHg 74%
    20:00 +1°C° 0.1 mm 2 mps 476 mmHg 77%
    21:00 -1°C° 0 mm 2 mps 476 mmHg 78%
    22:00 -2°C° 0 mm 2 mps 475 mmHg 79%
    23:00 -3°C° 0 mm 2 mps 475 mmHg 80%

    Day after tomorrow, 25 May, Saturday

    Time Temperature Precipitation Wind Pressure Humidity
    00:00 -3°C° 0 mm 2 mps 474 mmHg 81%
    01:00 -2°C° 0 mm 1 mps 474 mmHg 82%
    02:00 -3°C° 0 mm 1 mps 473 mmHg 82%
    03:00 -3°C° 0 mm 1 mps 473 mmHg 82%
    04:00 -3°C° 0 mm 1 mps 473 mmHg 81%
    05:00 -4°C° 0 mm 1 mps 472 mmHg 81%
    06:00 -2°C° 0 mm 1 mps 473 mmHg 75%
    07:00 -3°C° 0 mm 2 mps 475 mmHg 70%
    08:00 -1°C° 0 mm 2 mps 476 mmHg 65%
    09:00 +1°C° 0 mm 2 mps 476 mmHg 61%
    10:00 +2°C° 0 mm 2 mps 477 mmHg 57%
    11:00 +2°C° 0 mm 3 mps 477 mmHg 54%
    12:00 +2°C° 0 mm 3 mps 477 mmHg 55%
    13:00 +3°C° 0 mm 3 mps 478 mmHg 56%
    14:00 +4°C° 0 mm 2 mps 478 mmHg 58%
    15:00 +3°C° 0.1 mm 3 mps 478 mmHg 59%
    16:00 +3°C° 0.1 mm 3 mps 477 mmHg 61%
    17:00 +3°C° 0.1 mm 3 mps 477 mmHg 62%
    18:00 +1°C° 0.1 mm 3 mps 477 mmHg 66%
    19:00 0°C° 0.1 mm 3 mps 476 mmHg 69%
    20:00 -1°C° 0.1 mm 3 mps 475 mmHg 73%
    21:00 -2°C° 0 mm 3 mps 475 mmHg 74%
    22:00 -3°C° 0 mm 2 mps 475 mmHg 75%
    23:00 -3°C° 0 mm 2 mps 475 mmHg 77%

    26 May, Sunday

    Time Temperature Precipitation Wind Pressure Humidity
    00:00 -4°C° 0 mm 2 mps 474 mmHg 77%
    01:00 -5°C° 0 mm 2 mps 474 mmHg 78%
    02:00 -5°C° 0 mm 2 mps 473 mmHg 78%
    03:00 -5°C° 0 mm 2 mps 473 mmHg 79%
    04:00 -6°C° 0 mm 2 mps 473 mmHg 80%
    05:00 -6°C° 0 mm 2 mps 473 mmHg 80%
    06:00 -6°C° 0 mm 3 mps 474 mmHg 76%
    07:00 -5°C° 0 mm 3 mps 474 mmHg 72%
    08:00 -4°C° 0 mm 3 mps 475 mmHg 67%
    09:00 -2°C° 0 mm 3 mps 476 mmHg 64%
    10:00 -1°C° 0 mm 3 mps 476 mmHg 60%
    11:00 0°C° 0 mm 3 mps 477 mmHg 57%
    12:00 +1°C° 0 mm 3 mps 477 mmHg 55%
    13:00 +1°C° 0 mm 3 mps 477 mmHg 53%
    14:00 +2°C° 0 mm 3 mps 477 mmHg 50%
    15:00 +2°C° 0 mm 3 mps 477 mmHg 52%
    16:00 +1°C° 0 mm 3 mps 477 mmHg 53%
    17:00 +1°C° 0 mm 3 mps 477 mmHg 54%
    18:00 0°C° 0 mm 3 mps 476 mmHg 56%
    19:00 -1°C° 0 mm 3 mps 476 mmHg 59%
    20:00 -3°C° 0 mm 2 mps 475 mmHg 61%
    21:00 -3°C° 0 mm 2 mps 475 mmHg 62%
    22:00 -4°C° 0 mm 2 mps 475 mmHg 62%
    23:00 -2°C° 0 mm 1 mps 474 mmHg 63%

    27 May, Monday

    Time Temperature Precipitation Wind Pressure Humidity
    00:00 -3°C° 0 mm 1 mps 474 mmHg 60%
    01:00 -3°C° 0 mm 1 mps 473 mmHg 57%
    02:00 -4°C° 0 mm 1 mps 473 mmHg 54%
    03:00 -4°C° 0 mm 1 mps 473 mmHg 53%
    04:00 -4°C° 0 mm 1 mps 473 mmHg 51%
    05:00 -4°C° 0 mm 1 mps 473 mmHg 50%
    06:00 -3°C° 0 mm 1 mps 474 mmHg 46%
    07:00 -1°C° 0 mm 1 mps 475 mmHg 42%
    08:00 +1°C° 0 mm 1 mps 476 mmHg 38%
    09:00 +1°C° 0 mm 2 mps 477 mmHg 34%
    10:00 +2°C° 0 mm 2 mps 478 mmHg 31%
    11:00 +3°C° 0 mm 3 mps 478 mmHg 27%
    12:00 +3°C° 0 mm 3 mps 479 mmHg 28%
    13:00 +4°C° 0 mm 3 mps 479 mmHg 29%
    14:00 +4°C° 0 mm 3 mps 479 mmHg 31%
    15:00 +4°C° 0 mm 3 mps 478 mmHg 31%
    16:00 +3°C° 0 mm 3 mps 478 mmHg 32%
    17:00 +3°C° 0 mm 3 mps 478 mmHg 33%
    18:00 +3°C° 0 mm 2 mps 477 mmHg 33%
    19:00 +1°C° 0 mm 2 mps 476 mmHg 32%
    20:00 -1°C° 0 mm 2 mps 475 mmHg 32%
    21:00 0°C° 0 mm 1 mps 475 mmHg 32%
    22:00 0°C° 0 mm 1 mps 475 mmHg 33%
    23:00 -1°C° 0 mm 1 mps 475 mmHg 33%

    28 May, Tuesday

    Time Temperature Precipitation Wind Pressure Humidity
    00:00 -1°C° 0 mm 1 mps 474 mmHg 31%
    01:00 -1°C° 0 mm 1 mps 474 mmHg 30%
    02:00 -2°C° 0 mm 1 mps 474 mmHg 28%
    03:00 -2°C° 0 mm 1 mps 473 mmHg 26%
    04:00 -2°C° 0 mm 1 mps 473 mmHg 25%
    05:00 -3°C° 0 mm 1 mps 473 mmHg 23%
    06:00 -1°C° 0 mm 1 mps 474 mmHg 25%
    07:00 +1°C° 0 mm 1 mps 476 mmHg 26%
    08:00 +2°C° 0 mm 2 mps 477 mmHg 28%
    09:00 +3°C° 0 mm 2 mps 478 mmHg 28%
    10:00 +4°C° 0 mm 2 mps 478 mmHg 28%
    11:00 +5°C° 0 mm 3 mps 479 mmHg 29%
    12:00 +5°C° 0 mm 3 mps 479 mmHg 31%
    13:00 +5°C° 0 mm 3 mps 479 mmHg 33%
    14:00 +7°C° 0 mm 3 mps 479 mmHg 35%
    15:00 +5°C° 0 mm 3 mps 479 mmHg 34%
    16:00 +5°C° 0 mm 3 mps 479 mmHg 34%
    17:00 +5°C° 0 mm 3 mps 478 mmHg 34%
    18:00 +3°C° 0 mm 3 mps 478 mmHg 34%
    19:00 +3°C° 0 mm 2 mps 477 mmHg 35%
    20:00 +1°C° 0 mm 2 mps 476 mmHg 36%
    21:00 +1°C° 0 mm 2 mps 476 mmHg 37%
    22:00 +1°C° 0 mm 1 mps 476 mmHg 38%
    23:00 +1°C° 0 mm 1 mps 475 mmHg 40%
    Show more